Hourly Data Report for October 12, 2014

All times are specified in Local Standard Time (LST). Add 1 hour to adjust for Daylight Saving Time where and when it is observed.

PENTICTON A
BRITISH COLUMBIA

49°27'45.000" N
119°36'08.000" W
344.40 m
1126146
71889
YYF

Download Data

Hourly Data (October 2014)
Hourly Data Report for October 12, 2014
Temp Definition
°C
Dew Point Temp Definition
°C
Rel Hum Definition
%
Wind Dir Definition
10's deg

Wind Spd Definition
km/h
Visibility Definition
km
Stn Press Definition
kPa
Hmdx Definition


Wind Chill Definition


Weather Definition


TIME
00:00 Legend Double Dagger 11.4 4.0 60 36 1 24.1 97.63     LegendNANA
01:00 Legend Double Dagger 8.6 3.5 70 36 1 24.1 97.71     Mostly Cloudy
02:00 Legend Double Dagger 8.5 3.2 69 36 3 24.1 97.73     LegendNANA
03:00 Legend Double Dagger 6.3 2.6 77 5 3 24.1 97.76     LegendNANA
04:00 Legend Double Dagger 5.7 2.2 78 0 1 24.1 97.83     Mostly Cloudy
05:00 Legend Double Dagger 5.6 1.3 74 33 3 24.1 97.91     LegendNANA
06:00 Legend Double Dagger 5.3 1.8 78 36 2 24.1 97.96     LegendNANA
07:00 Legend Double Dagger 5.8 2.5 79 36 2 24.1 98.00     Mainly Clear
08:00 Legend Double Dagger 12.2 5.4 63 18 8 24.1 98.04     LegendNANA
09:00 Legend Double Dagger 14.0 5.2 55 19 7 24.1 98.05     LegendNANA
10:00 Legend Double Dagger 14.1 5.3 55 16 6 24.1 98.01     Mostly Cloudy
11:00 Legend Double Dagger 16.2 4.0 44 18 3 24.1 97.97     LegendNANA
12:00 Legend Double Dagger 16.8 3.2 40 15 4 24.1 97.93     LegendNANA
13:00 Legend Double Dagger 17.9 4.6 41 17 14 24.1 97.88     Cloudy
14:00 Legend Double Dagger 18.1 4.4 40 17 13 24.1 97.82     LegendNANA
15:00 Legend Double Dagger 17.8 4.5 41 17 11 24.1 97.77     LegendNANA
16:00 Legend Double Dagger 17.5 3.1 38 17 12 24.1 97.77     Cloudy
17:00 Legend Double Dagger 16.6 6.2 50 36 1 24.1 97.75     LegendNANA
18:00 Legend Double Dagger 16.2 3.0 41 32 16 24.1 97.76     LegendNANA
19:00 Legend Double Dagger 14.0 5.7 57 2 14 24.1 97.80     Rain Showers
20:00 Legend Double Dagger 12.7 6.6 66 32 7 24.1 97.83     LegendNANA
21:00 Legend Double Dagger 11.6 7.7 77 31 6 24.1 97.85     Rain Showers
22:00 Legend Double Dagger 10.2 8.7 90 3 7 24.1 97.81     Cloudy
23:00 Legend Double Dagger 9.3 8.2 93 36 7 24.1 97.77     LegendNANA

Notes on Data Quality.

Legend

  • E = Estimated
  • M = Missing
  • NA = Not Available
  • ‡ = Partner data that is not subject to review by the National Climate Archives
Date modified: